• In Russia
  • List of Countries
  • For 7 days
  • Water Temperature
  • Satellite Maps
  • Weather Map
  • Weather Widgets
  • user-avatar
    Login

    Hourly Weather Prutz

    Today, 23 September, Saturday

    Time Temperature Precipitation Wind Pressure Humidity
    00:00 +5°C° 0 mm 1 mps 636 mmHg 78%
    01:00 +6°C° 0 mm 1 mps 636 mmHg 71%
    02:00 +6°C° 0 mm 1 mps 636 mmHg 71%
    03:00 +6°C° 0 mm 1 mps 636 mmHg 71%
    04:00 +5°C° 0 mm 1 mps 636 mmHg 72%
    05:00 +6°C° 0 mm 1 mps 636 mmHg 72%
    06:00 +6°C° 0 mm 1 mps 636 mmHg 71%
    07:00 +8°C° 0 mm 1 mps 637 mmHg 69%
    08:00 +9°C° 0.1 mm 1 mps 637 mmHg 67%
    09:00 +11°C° 0.1 mm 1 mps 638 mmHg 64%
    10:00 +13°C° 0.1 mm 1 mps 638 mmHg 62%
    11:00 +13°C° 0.3 mm 1 mps 638 mmHg 62%
    12:00 +13°C° 0.3 mm 1 mps 638 mmHg 62%
    13:00 +14°C° 0.3 mm 1 mps 638 mmHg 63%
    14:00 +13°C° 0.5 mm 1 mps 637 mmHg 68%
    15:00 +13°C° 0.5 mm 1 mps 637 mmHg 72%
    16:00 +12°C° 0.5 mm 1 mps 636 mmHg 77%
    17:00 +11°C° 0.3 mm 1 mps 636 mmHg 83%
    18:00 +9°C° 0.3 mm 1 mps 635 mmHg 88%
    19:00 +6°C° 0.3 mm 0 mps 635 mmHg 93%
    20:00 +7°C° 0.2 mm 1 mps 635 mmHg 94%
    21:00 +7°C° 0.2 mm 1 mps 635 mmHg 95%
    22:00 +7°C° 0.2 mm 1 mps 635 mmHg 96%
    23:00 +7°C° 0 mm 1 mps 635 mmHg 95%

    Tomorrow, 24 September, Sunday

    Time Temperature Precipitation Wind Pressure Humidity
    00:00 +7°C° 0 mm 1 mps 635 mmHg 95%
    01:00 +7°C° 0 mm 1 mps 635 mmHg 95%
    02:00 +7°C° 0.1 mm 1 mps 635 mmHg 94%
    03:00 +7°C° 0.1 mm 1 mps 635 mmHg 94%
    04:00 +7°C° 0.1 mm 1 mps 635 mmHg 94%
    05:00 +7°C° 0.2 mm 1 mps 635 mmHg 93%
    06:00 +7°C° 0.2 mm 1 mps 635 mmHg 92%
    07:00 +7°C° 0.2 mm 1 mps 635 mmHg 92%
    08:00 +8°C° 0.2 mm 1 mps 636 mmHg 86%
    09:00 +9°C° 0.2 mm 1 mps 636 mmHg 81%
    10:00 +10°C° 0.2 mm 1 mps 636 mmHg 75%
    11:00 +11°C° 0.3 mm 1 mps 636 mmHg 74%
    12:00 +10°C° 0.3 mm 2 mps 636 mmHg 73%
    13:00 +12°C° 0.3 mm 2 mps 636 mmHg 73%
    14:00 +12°C° 0.3 mm 2 mps 636 mmHg 73%
    15:00 +10°C° 0.3 mm 2 mps 636 mmHg 74%
    16:00 +10°C° 0.3 mm 2 mps 636 mmHg 75%
    17:00 +10°C° 0.1 mm 1 mps 636 mmHg 81%
    18:00 +8°C° 0.1 mm 1 mps 635 mmHg 87%
    19:00 +6°C° 0.1 mm 1 mps 635 mmHg 92%
    20:00 +6°C° 0 mm 1 mps 635 mmHg 93%
    21:00 +6°C° 0 mm 1 mps 635 mmHg 94%
    22:00 +5°C° 0 mm 1 mps 635 mmHg 95%
    23:00 +5°C° 0 mm 1 mps 635 mmHg 94%

    Day after tomorrow, 25 September, Monday

    Time Temperature Precipitation Wind Pressure Humidity
    00:00 +5°C° 0 mm 1 mps 635 mmHg 93%
    01:00 +5°C° 0 mm 1 mps 635 mmHg 93%
    02:00 +4°C° 0 mm 1 mps 635 mmHg 91%
    03:00 +4°C° 0 mm 1 mps 634 mmHg 89%
    04:00 +4°C° 0 mm 1 mps 634 mmHg 87%
    05:00 +4°C° 0 mm 1 mps 634 mmHg 85%
    06:00 +4°C° 0 mm 1 mps 634 mmHg 84%
    07:00 +4°C° 0 mm 1 mps 634 mmHg 82%
    08:00 +7°C° 0 mm 1 mps 635 mmHg 73%
    09:00 +8°C° 0 mm 0 mps 636 mmHg 65%
    10:00 +11°C° 0 mm 0 mps 636 mmHg 56%
    11:00 +12°C° 0 mm 0 mps 636 mmHg 53%
    12:00 +13°C° 0 mm 1 mps 636 mmHg 50%
    13:00 +14°C° 0 mm 1 mps 636 mmHg 47%
    14:00 +14°C° 0 mm 1 mps 636 mmHg 50%
    15:00 +13°C° 0 mm 1 mps 636 mmHg 54%
    16:00 +13°C° 0 mm 1 mps 636 mmHg 57%
    17:00 +11°C° 0 mm 1 mps 635 mmHg 66%
    18:00 +8°C° 0 mm 1 mps 635 mmHg 76%
    19:00 +5°C° 0 mm 0 mps 634 mmHg 86%
    20:00 +6°C° 0 mm 1 mps 634 mmHg 86%
    21:00 +6°C° 0 mm 1 mps 635 mmHg 86%
    22:00 +6°C° 0 mm 1 mps 635 mmHg 87%
    23:00 +6°C° 0 mm 1 mps 635 mmHg 86%

    26 September, Tuesday

    Time Temperature Precipitation Wind Pressure Humidity
    00:00 +6°C° 0 mm 1 mps 635 mmHg 86%
    01:00 +6°C° 0 mm 1 mps 635 mmHg 85%
    02:00 +6°C° 0.1 mm 1 mps 635 mmHg 86%
    03:00 +6°C° 0.1 mm 1 mps 635 mmHg 87%
    04:00 +6°C° 0.1 mm 1 mps 635 mmHg 88%
    05:00 +7°C° 0.1 mm 1 mps 635 mmHg 88%
    06:00 +7°C° 0.1 mm 1 mps 635 mmHg 88%
    07:00 +7°C° 0.1 mm 1 mps 635 mmHg 88%
    08:00 +8°C° 0.1 mm 1 mps 636 mmHg 82%
    09:00 +10°C° 0.1 mm 1 mps 636 mmHg 77%
    10:00 +11°C° 0.1 mm 1 mps 637 mmHg 71%
    11:00 +12°C° 0.1 mm 1 mps 637 mmHg 68%
    12:00 +12°C° 0.1 mm 1 mps 637 mmHg 66%
    13:00 +13°C° 0.1 mm 1 mps 637 mmHg 63%
    14:00 +13°C° 0.3 mm 1 mps 637 mmHg 67%
    15:00 +12°C° 0.3 mm 1 mps 636 mmHg 71%
    16:00 +12°C° 0.3 mm 1 mps 636 mmHg 75%
    17:00 +10°C° 0.4 mm 1 mps 636 mmHg 80%
    18:00 +9°C° 0.4 mm 1 mps 636 mmHg 86%
    19:00 +7°C° 0.4 mm 0 mps 636 mmHg 91%
    20:00 +8°C° 0.2 mm 1 mps 636 mmHg 91%
    21:00 +7°C° 0.2 mm 1 mps 636 mmHg 91%
    22:00 +7°C° 0.2 mm 1 mps 636 mmHg 91%
    23:00 +7°C° 0 mm 1 mps 636 mmHg 91%

    27 September, Wednesday

    Time Temperature Precipitation Wind Pressure Humidity
    00:00 +7°C° 0 mm 1 mps 636 mmHg 90%
    01:00 +6°C° 0 mm 1 mps 636 mmHg 90%
    02:00 +6°C° 0 mm 1 mps 636 mmHg 90%
    03:00 +6°C° 0 mm 1 mps 636 mmHg 90%
    04:00 +5°C° 0 mm 1 mps 636 mmHg 90%
    05:00 +5°C° 0 mm 1 mps 636 mmHg 89%
    06:00 +6°C° 0 mm 1 mps 636 mmHg 88%
    07:00 +6°C° 0 mm 1 mps 637 mmHg 87%
    08:00 +8°C° 0 mm 1 mps 637 mmHg 80%
    09:00 +10°C° 0 mm 1 mps 638 mmHg 73%
    10:00 +13°C° 0 mm 1 mps 639 mmHg 65%
    11:00 +13°C° 0 mm 1 mps 639 mmHg 63%
    12:00 +14°C° 0 mm 1 mps 639 mmHg 60%
    13:00 +15°C° 0 mm 1 mps 639 mmHg 58%
    14:00 +14°C° 0.2 mm 1 mps 639 mmHg 62%
    15:00 +14°C° 0.2 mm 1 mps 639 mmHg 65%
    16:00 +14°C° 0.2 mm 1 mps 639 mmHg 69%
    17:00 +12°C° 0.1 mm 1 mps 639 mmHg 76%
    18:00 +9°C° 0.1 mm 0 mps 638 mmHg 83%
    19:00 +7°C° 0.1 mm 0 mps 638 mmHg 90%
    20:00 +6°C° 0 mm 0 mps 638 mmHg 90%
    21:00 +7°C° 0 mm 1 mps 638 mmHg 90%
    22:00 +7°C° 0 mm 1 mps 638 mmHg 90%
    23:00 +6°C° 0 mm 1 mps 638 mmHg 89%

    28 September, Thursday

    Time Temperature Precipitation Wind Pressure Humidity
    00:00 +6°C° 0 mm 1 mps 638 mmHg 88%
    01:00 +6°C° 0 mm 1 mps 638 mmHg 87%
    02:00 +6°C° 0 mm 1 mps 638 mmHg 87%
    03:00 +6°C° 0 mm 1 mps 638 mmHg 87%
    04:00 +6°C° 0 mm 1 mps 638 mmHg 86%
    05:00 +6°C° 0 mm 1 mps 639 mmHg 86%
    06:00 +6°C° 0 mm 1 mps 639 mmHg 85%
    07:00 +7°C° 0 mm 1 mps 639 mmHg 84%
    08:00 +9°C° 0 mm 1 mps 640 mmHg 77%
    09:00 +12°C° 0 mm 1 mps 641 mmHg 69%
    10:00 +14°C° 0 mm 1 mps 642 mmHg 62%
    11:00 +15°C° 0 mm 1 mps 642 mmHg 59%
    12:00 +15°C° 0 mm 1 mps 642 mmHg 57%
    13:00 +16°C° 0 mm 2 mps 642 mmHg 55%
    14:00 +15°C° 0.1 mm 2 mps 642 mmHg 60%
    15:00 +14°C° 0.1 mm 2 mps 642 mmHg 65%
    16:00 +14°C° 0.1 mm 2 mps 641 mmHg 71%
    17:00 +12°C° 0 mm 2 mps 641 mmHg 78%
    18:00 +11°C° 0 mm 1 mps 641 mmHg 86%
    19:00 +9°C° 0 mm 1 mps 640 mmHg 93%
    20:00 +8°C° 0 mm 1 mps 640 mmHg 94%
    21:00 +8°C° 0 mm 1 mps 641 mmHg 94%
    22:00 +8°C° 0 mm 1 mps 641 mmHg 95%
    23:00 +7°C° 0 mm 1 mps 640 mmHg 94%
    Show more